NOAA 16 DEB, 41069

Orbit data source: Space-Track

NOAA 16 DEB, 41069 is space debris in SSO originally from a launch on Thu, 21 Sep 2000 UTC launched from the Air Force Western Test Range (AFWTR). Debris objects in space refer to the collection of defunct objects orbiting the Earth. Examples of debris include non-operational satellites, rocket bodies, and fragments generated from explosions, collisions, or faulty payload assembly.

Loading next visibility...
Identifier
41069, 2000-055AC
Orbit
SSO
Country
Flag of USUS
Related business
Manufacturer
Unknown
Mission
Spacecraft
Bus & Motor
Unknown
Mass
Unknown
Launch date (UTC)
2000-09-21 (25 years ago)
Launch vehicle
Unknown
Launch site
Air Force Western Test Range (AFWTR)
Object type
Payload
Rocket body
Debris
Shape & HBR
Unknown shape, 0.1 m
Radar Cross Section
Small (<0.1 m²)

Expand to show TLE details & history
Last TLE update: 6 hours ago

TLE from 6 hours ago
0 NOAA 16 DEB
1 41069U 00055AC  26034.25617636  .00003482  00000-0  99126-3 0  9998
2 41069  98.5911 145.9483 0108827 219.7590 139.5588 14.42528405533317
Epoch: 2026-02-03T06:08Z
TLE epoch observation values (Epoch: 2026-02-03T06:08:53.637Z)
Latitude
0.00003°
Longitude
-79.71491°
Altitude
812.509 km
Speed
7.416 km/s
True Right ascension
09h 43m 47s
True Declination
0° 00' 00"
Sunlit
Object was in full shadow at epoch
Visualization orbit readout
Latitude
Unknown
Longitude
Unknown
Altitude
Unknown
Speed
Unknown
Apparent Right ascension
Unknown
Apparent Declination
Unknown
Sunlit
N/A
Visualization observer readout
Local Sidereal Time
14:24:21
Azimuth
Unknown
Elevation
Unknown
Doppler factor
Unknown
Orbital elements
Apogee altitude
824.823 km
Perigee altitude
669.735 km
Semi-major axis
7,125.416 km
Eccentricity
0.01088
Inclination
98.5911°
RAAN
145.9483°
Arg. of periapsis
219.759°
True anomaly
140.35941°
Mean anomaly
139.5588°
Eccentric anomaly
139.95993°
Mean motion
3.60851 °/min
Orbital period
99.76 mins
BSTAR
0.00099126
Loading maneuver chart data...
Computing Atmospheric mass density...
Loading historical data...
Loading historical data...
Loading historical data...
Loading historical data...
Loading historical data...
Loading historical data...
Loading historical data...

Documentation

Showing up to 5 results
|